Wind_Speed
22 22 22 22 22 22 20 18 18 17 18 18 18 18 17 17 17 17 16 15 15 14 14 14 13 13 13 12 12 11 11 10 10 10 10 9 8 7 8 7 7 7 7 7 7 7 6 6 6
24 24 24 24 24 23 21 20 19 19 19 19 19 19 19 19 18 18 17 16 16 16 15 15 15 15 14 14 13 13 12 12 11 11 12 11 11 10 9 9 8 8 8 8 8 8 8 8 8
26 25 25 25 25 23 22 21 21 21 21 20 20 20 20 20 20 19 18 17 17 17 17 16 16 16 16 15 15 15 14 14 13 13 13 13 13 13 12 11 11 10 9 9 9 10 9 9 9
27 27 27 26 25 24 23 22 23 22 22 22 22 22 21 21 20 20 20 19 19 19 18 18 18 18 17 17 17 17 16 16 16 15 15 15 15 15 14 14 13 13 12 11 11 11 12 11 11
28 28 28 27 25 24 24 23 23 24 23 23 23 23 22 22 22 22 22 21 21 21 21 20 20 20 20 19 19 19 18 18 18 17 17 17 17 17 17 16 16 15 15 14 13 13 13 14 13
28 29 28 27 25 24 25 25 25 25 25 24 24 23 23 24 24 24 23 23 23 23 23 23 23 22 22 22 21 21 21 21 20 20 20 19 19 19 18 18 18 17 17 16 15 15 15 16 16
29 29 28 27 26 25 25 26 26 26 26 26 26 25 24 25 25 26 25 25 25 24 24 24 24 24 24 23 23 23 23 23 22 22 22 22 22 21 21 20 20 20 19 18 17 17 17 18 18
29 30 30 29 28 26 26 26 26 26 26 26 27 26 25 25 26 26 26 26 25 25 25 25 25 25 25 25 25 24 25 25 24 23 23 24 24 24 23 22 22 22 22 21 20 19 19 19 19
28 30 30 30 29 28 28 27 27 27 27 27 27 27 26 26 26 26 26 26 26 26 27 26 26 26 26 26 26 26 26 26 26 25 25 25 25 25 25 24 24 23 23 23 23 22 21 21 21
28 28 28 29 30 29 29 29 29 28 27 28 28 28 27 27 27 27 28 27 27 27 28 28 28 27 27 28 27 27 27 27 27 26 27 26 26 27 27 26 26 25 25 25 24 24 23 23 23
28 28 28 29 29 29 29 29 29 29 28 28 29 29 28 28 29 28 28 29 28 28 29 29 29 29 29 29 28 28 29 29 29 28 28 28 28 28 28 28 27 27 27 27 27 26 25 24 24
28 28 28 28 29 30 30 30 30 30 29 29 30 30 30 29 30 29 29 29 29 29 29 30 31 31 30 29 30 30 30 30 31 30 30 30 30 30 30 30 30 30 29 29 28 28 27 26 26
29 29 29 29 30 30 30 31 31 31 31 31 30 31 31 31 31 31 30 31 31 31 31 32 32 32 33 32 32 32 33 33 33 32 32 32 32 32 32 32 31 31 31 30 30 29 29 28 28
30 30 30 30 30 31 31 31 32 32 32 32 31 31 32 32 32 32 32 32 33 33 33 33 34 34 34 34 34 34 34 35 35 35 34 34 34 34 34 34 33 33 32 32 31 31 30 30 30
30 31 31 30 30 31 32 32 32 32 33 33 33 33 32 32 33 33 33 34 34 34 34 35 35 36 36 36 36 36 35 36 36 37 37 36 36 36 36 36 35 35 35 34 34 33 33 32 32
31 32 31 31 31 31 32 32 32 33 34 33 33 33 34 33 33 33 34 35 35 35 36 37 37 37 37 37 37 37 37 37 37 37 37 37 37 37 37 38 38 37 37 36 36 35 35 35 34
32 32 32 31 31 32 33 32 31 33 34 34 34 34 34 34 34 34 35 36 36 36 37 37 37 38 38 38 38 38 38 38 38 38 38 38 38 38 38 38 39 38 38 37 37 36 35 35 35
33 33 33 32 32 33 33 33 31 33 34 34 34 34 35 35 35 35 35 36 36 36 37 38 38 39 39 39 39 39 39 39 39 39 39 39 39 39 39 38 39 39 38 38 37 37 36 36 36
33 33 33 33 33 34 34 33 33 33 34 34 34 34 34 35 35 35 36 37 37 37 37 37 37 38 38 39 40 39 39 39 40 40 40 39 39 39 40 39 40 39 38 38 38 38 38 37 37
32 33 33 33 33 34 35 34 33 34 34 34 35 35 35 35 35 35 36 36 37 37 37 37 37 37 38 38 39 39 38 38 39 39 39 39 39 39 40 41 40 39 38 39 39 39 39 38 38
33 33 33 34 34 35 36 36 34 34 34 34 34 34 35 35 35 35 36 36 37 37 37 37 37 37 37 38 38 38 38 37 38 39 39 39 39 39 40 40 40 39 39 39 39 39 39 39 39
32 32 33 34 34 34 35 36 34 34 34 34 33 34 35 35 36 35 36 36 37 37 37 37 36 37 37 38 37 37 37 37 37 37 39 39 39 39 39 40 40 40 40 40 40 39 39 39 40
32 32 33 33 34 35 34 36 34 33 32 32 33 33 34 35 36 36 36 36 37 37 37 37 37 37 37 37 37 37 37 36 36 37 37 38 39 39 39 40 41 41 41 40 40 40 40 41 41
32 32 33 34 34 35 34 35 34 32 31 30 31 33 33 34 35 35 36 37 36 36 37 37 38 38 38 38 38 38 38 37 36 36 36 36 37 38 39 39 40 40 40 40 40 41 41 42 42
31 31 32 34 35 35 33 34 33 32 31 30 29 31 33 34 34 35 36 36 37 36 37 37 38 38 38 37 37 38 38 38 37 36 36 36 37 37 38 38 38 38 39 40 40 41 42 43 43
30 30 32 34 35 34 33 34 32 32 31 30 30 31 32 34 34 35 35 36 36 36 36 36 37 37 37 37 37 37 38 38 38 37 37 36 36 37 37 38 37 37 38 39 40 40 41 43 44
30 30 31 33 34 34 33 33 32 31 31 30 31 31 32 34 34 34 34 35 36 36 36 36 36 36 36 37 37 37 37 37 37 37 37 37 36 36 37 37 37 38 38 37 38 40 41 42 43
30 30 30 32 33 33 33 32 31 30 30 31 31 32 33 33 33 33 33 34 34 35 35 35 35 35 35 36 36 37 37 37 37 38 38 38 38 38 38 38 38 38 39 40 40 41 41 42 42
29 28 30 32 33 33 32 31 30 30 30 30 31 31 32 32 32 33 33 33 34 34 34 34 34 35 35 35 36 37 37 37 38 38 38 39 39 39 40 39 39 40 39 40 41 43 43 42 42
29 29 29 30 31 31 32 30 28 29 29 30 30 31 31 32 32 32 32 32 32 32 33 33 34 34 34 35 35 36 37 37 38 38 39 39 40 40 41 41 41 41 42 42 42 43 43 44 44
Wind_Direction
248 246 246 247 249 249 251 252 253 254 253 253 254 255 257 255 255 253 252 251 250 250 249 248 248 249 249 250 250 250 250 251 253 252 248 245 243 243 246 253 259 263 263 260 257 257 260 259 260
248 247 246 247 249 250 252 253 254 254 255 254 254 256 258 256 255 255 252 250 248 249 249 249 248 248 248 249 250 251 253 254 253 252 249 248 248 246 247 254 258 260 263 263 259 257 257 257 258
249 248 247 248 249 250 251 251 252 253 254 254 255 256 257 257 257 256 254 251 249 249 249 249 249 248 249 250 251 252 253 255 255 255 253 251 251 252 252 253 257 259 261 263 261 257 256 256 257
249 249 248 248 250 250 251 251 251 252 252 253 254 255 257 257 258 257 255 255 253 252 251 250 250 251 253 253 253 254 255 256 255 257 257 254 253 253 253 253 255 257 258 260 261 259 257 258 259
248 249 249 249 250 250 251 252 252 252 252 253 254 256 257 257 257 256 255 255 255 254 253 252 252 254 255 255 255 254 255 255 256 257 258 255 254 255 255 255 255 256 256 258 259 259 259 259 259
248 248 249 249 250 251 252 252 253 253 253 254 255 258 258 258 257 256 255 255 255 256 255 255 254 255 256 256 258 255 255 256 256 257 257 254 254 255 256 256 256 256 257 258 260 262 263 262 261
248 248 249 249 250 250 252 252 253 253 254 254 255 257 258 258 256 255 255 255 256 258 257 257 257 257 257 258 258 255 255 255 255 255 255 254 254 255 256 256 256 255 256 257 259 262 262 261 260
248 247 247 248 249 250 252 253 254 254 255 255 255 255 257 257 256 255 254 254 256 257 257 257 259 259 258 259 257 255 256 255 255 254 254 254 253 254 256 256 256 256 257 258 260 260 260 261 261
250 248 248 249 250 250 252 253 254 255 256 256 256 256 257 257 256 255 255 255 256 257 257 258 259 259 259 259 258 257 256 255 255 254 254 254 253 253 255 256 256 256 257 258 259 259 259 260 261
251 250 250 250 250 251 252 253 255 256 257 256 256 257 256 257 257 256 256 257 257 256 257 258 259 259 259 258 258 257 256 255 253 253 254 254 253 253 254 255 255 256 258 258 258 258 258 259 261
251 251 251 250 250 251 252 253 255 256 257 257 257 256 257 257 258 258 258 259 259 258 257 258 259 260 260 259 258 258 257 255 253 253 253 254 254 253 253 255 255 256 258 259 259 258 258 259 261
252 252 252 251 250 251 252 253 254 255 256 258 259 259 259 258 258 258 258 258 259 258 259 259 260 259 259 259 259 258 257 256 255 253 253 253 253 253 253 254 255 257 257 259 259 259 260 261 262
253 253 253 253 252 252 252 253 254 254 255 257 259 259 259 259 259 259 259 259 258 259 260 261 260 260 258 259 260 259 258 257 256 255 255 254 253 253 253 254 256 256 257 258 259 259 260 261 262
254 253 253 253 253 253 253 252 254 254 256 257 259 260 260 259 259 259 259 260 260 260 261 262 262 261 260 259 260 260 258 256 255 255 255 255 254 253 253 252 254 255 256 257 257 258 259 261 262
253 253 253 253 253 253 253 252 254 255 256 258 258 259 259 260 259 259 259 261 261 261 262 263 263 262 261 261 261 260 259 258 256 255 255 255 254 253 253 253 253 255 256 256 256 257 258 260 261
252 253 253 253 253 254 254 254 254 255 257 259 260 260 260 261 260 259 260 260 261 261 262 263 263 263 262 261 261 260 259 258 256 255 254 255 255 254 253 253 254 255 256 256 255 256 257 259 260
252 253 254 254 254 255 255 255 255 256 258 259 260 260 261 262 261 260 261 262 262 262 263 263 263 263 262 261 261 260 259 259 257 255 254 254 255 255 253 253 254 255 255 254 255 255 256 259 260
254 253 254 255 255 255 255 255 255 256 257 259 261 262 262 263 263 262 262 263 264 263 264 264 263 262 261 261 261 260 259 259 258 255 255 254 254 254 252 252 253 253 254 254 254 255 256 258 260
255 254 254 254 254 255 255 256 255 256 257 258 260 262 263 264 263 263 263 264 264 264 265 265 264 263 262 261 260 259 258 257 258 257 254 254 253 253 251 250 251 251 252 253 253 254 256 257 259
255 254 254 255 255 256 256 256 256 256 257 258 260 262 263 263 264 264 264 265 264 264 264 264 264 263 262 261 259 259 258 256 256 256 256 254 253 253 252 250 250 251 251 251 253 254 255 255 257
255 256 257 258 257 257 258 257 257 257 258 259 261 262 263 263 264 264 264 264 265 265 265 265 264 263 262 261 259 258 257 256 256 256 255 254 253 252 251 250 250 251 251 251 252 254 255 256 257
259 258 259 259 260 259 259 260 257 259 259 261 262 262 263 263 264 265 264 265 265 265 266 265 265 263 261 260 259 258 258 256 256 256 254 253 252 252 251 250 250 250 252 252 253 254 255 257 258
259 258 258 259 260 260 260 262 261 261 262 262 263 262 263 263 264 265 264 265 266 266 265 265 264 263 261 259 258 257 257 256 256 256 254 253 252 251 251 250 251 252 253 253 254 254 256 257 259
260 259 259 259 260 261 261 263 263 261 262 263 263 262 262 262 263 264 265 265 265 266 265 264 264 263 261 260 259 257 256 255 256 256 254 253 251 250 250 250 251 252 253 254 255 256 257 258 260
260 260 260 261 261 263 263 263 263 262 262 263 263 262 262 263 264 265 265 264 265 266 265 264 263 262 261 260 259 257 256 255 256 256 256 254 252 251 250 251 251 252 254 255 257 259 259 260 261
260 260 261 263 263 263 264 264 264 263 264 264 264 264 264 266 267 266 267 266 266 265 265 264 263 261 260 260 258 257 256 256 255 255 254 255 253 251 251 253 253 255 256 257 260 261 262 262 262
260 259 261 262 263 264 264 266 265 264 264 266 267 266 265 267 267 267 267 267 267 266 264 262 261 260 260 259 259 257 256 255 254 254 255 255 253 251 251 253 254 256 258 260 261 262 262 262 263
260 260 260 260 262 264 265 267 267 266 267 267 268 268 266 266 266 266 268 268 267 266 264 261 260 259 259 258 257 257 256 255 254 254 255 255 254 252 252 253 255 257 259 260 261 263 265 265 265
260 259 260 260 261 264 268 269 271 270 269 270 270 268 266 265 265 267 267 267 267 265 263 261 260 259 258 257 257 257 257 256 255 255 255 254 254 253 254 255 256 258 260 262 263 264 266 267 268
261 259 258 259 262 264 268 270 271 271 271 271 271 270 268 266 266 266 267 268 267 265 263 262 261 260 259 258 258 258 258 258 257 256 256 255 254 254 255 256 258 260 261 263 264 265 267 267 268
Height
5807 5808 5809 5811 5813 5814 5815 5817 5818 5819 5819 5821 5821 5823 5824 5825 5826 5829 5828 5828 5829 5830 5831 5833 5834 5835 5836 5837 5838 5839 5840 5841 5842 5842 5843 5844 5845 5846 5847 5848 5850 5850 5851 5852 5853 5854 5854 5855 5855
5803 5804 5806 5807 5808 5810 5812 5813 5814 5815 5816 5817 5818 5819 5820 5821 5822 5823 5824 5825 5826 5827 5828 5830 5831 5832 5833 5834 5835 5836 5837 5838 5839 5840 5841 5842 5843 5844 5845 5846 5848 5849 5850 5850 5851 5852 5853 5853 5854
5798 5800 5802 5803 5804 5806 5809 5810 5811 5811 5812 5814 5814 5815 5816 5818 5819 5819 5820 5821 5823 5824 5825 5826 5827 5829 5830 5831 5832 5833 5835 5836 5837 5838 5839 5840 5841 5842 5843 5844 5845 5847 5848 5849 5849 5850 5851 5851 5852
5794 5795 5797 5799 5800 5803 5804 5806 5807 5807 5808 5810 5811 5812 5813 5814 5815 5816 5817 5818 5819 5820 5822 5823 5824 5825 5827 5828 5829 5830 5831 5832 5833 5835 5836 5837 5838 5839 5840 5842 5843 5844 5845 5846 5847 5848 5849 5849 5850
5788 5790 5792 5793 5796 5798 5800 5801 5802 5803 5804 5805 5806 5807 5809 5810 5811 5812 5813 5814 5815 5816 5818 5819 5820 5822 5823 5824 5825 5826 5827 5828 5829 5831 5832 5833 5835 5836 5837 5839 5840 5841 5842 5843 5844 5845 5846 5847 5847
5783 5784 5787 5789 5792 5794 5795 5796 5797 5798 5800 5801 5802 5803 5804 5805 5806 5807 5808 5810 5811 5812 5814 5815 5816 5818 5818 5820 5821 5822 5823 5824 5825 5826 5828 5829 5831 5832 5834 5835 5836 5838 5839 5840 5841 5842 5843 5843 5844
5777 5779 5781 5784 5787 5789 5790 5791 5792 5793 5795 5796 5797 5798 5799 5800 5801 5802 5804 5805 5807 5808 5809 5811 5812 5813 5814 5815 5816 5816 5817 5819 5820 5821 5823 5824 5826 5828 5830 5831 5832 5834 5835 5836 5837 5838 5839 5840 5841
5771 5774 5776 5779 5781 5784 5785 5786 5787 5789 5790 5791 5792 5793 5795 5795 5796 5797 5798 5800 5802 5803 5805 5806 5807 5808 5809 5810 5810 5811 5812 5813 5815 5816 5818 5819 5821 5823 5825 5827 5828 5829 5831 5832 5833 5834 5835 5836 5837
5765 5768 5770 5773 5776 5778 5780 5781 5782 5783 5785 5786 5787 5788 5789 5790 5790 5792 5793 5795 5797 5798 5800 5801 5802 5803 5803 5804 5804 5806 5807 5808 5809 5811 5812 5814 5816 5818 5820 5822 5823 5824 5826 5827 5828 5830 5830 5831 5832
5759 5762 5765 5768 5770 5772 5774 5775 5776 5778 5779 5780 5781 5782 5783 5784 5785 5787 5788 5789 5791 5793 5794 5795 5796 5797 5797 5798 5799 5800 5801 5802 5804 5805 5807 5809 5810 5812 5814 5816 5818 5819 5821 5822 5823 5824 5825 5826 5827
5754 5757 5759 5761 5763 5765 5767 5768 5770 5772 5774 5775 5776 5777 5778 5779 5780 5781 5782 5784 5785 5787 5788 5790 5790 5791 5791 5792 5793 5794 5795 5796 5798 5799 5801 5803 5804 5806 5808 5810 5812 5814 5815 5816 5818 5819 5820 5821 5822
5748 5751 5753 5755 5756 5758 5760 5762 5763 5765 5768 5768 5770 5770 5772 5773 5774 5775 5776 5777 5779 5780 5782 5783 5784 5784 5785 5785 5786 5787 5788 5790 5791 5793 5794 5796 5798 5800 5802 5804 5806 5807 5809 5810 5812 5813 5814 5815 5816
5742 5745 5747 5748 5750 5751 5753 5755 5757 5759 5760 5761 5763 5764 5765 5766 5767 5769 5770 5771 5772 5774 5775 5776 5776 5777 5778 5779 5780 5781 5782 5783 5784 5786 5787 5789 5791 5793 5795 5797 5799 5801 5802 5804 5805 5806 5808 5809 5810
5736 5738 5740 5741 5743 5745 5746 5748 5750 5753 5753 5754 5755 5756 5758 5759 5760 5761 5763 5764 5765 5766 5767 5768 5769 5770 5770 5771 5772 5773 5774 5776 5777 5778 5780 5782 5783 5785 5787 5789 5791 5793 5795 5797 5798 5800 5801 5802 5803
5728 5731 5733 5734 5736 5737 5739 5741 5743 5745 5746 5747 5748 5749 5750 5751 5752 5754 5755 5756 5757 5758 5759 5761 5761 5762 5762 5763 5764 5765 5766 5768 5769 5770 5772 5774 5775 5777 5779 5781 5783 5785 5787 5789 5791 5792 5793 5795 5796
5721 5723 5725 5728 5729 5730 5732 5735 5737 5737 5738 5739 5740 5741 5743 5744 5745 5746 5746 5748 5748 5749 5751 5752 5753 5753 5754 5755 5756 5757 5758 5759 5760 5761 5763 5765 5767 5768 5771 5773 5775 5777 5779 5781 5782 5784 5786 5786 5788
5712 5715 5717 5720 5721 5722 5723 5726 5730 5729 5730 5731 5733 5733 5734 5736 5736 5737 5738 5739 5740 5741 5742 5743 5743 5744 5745 5746 5747 5748 5749 5750 5751 5752 5754 5756 5758 5759 5761 5764 5766 5768 5770 5771 5773 5775 5777 5778 5780
5705 5706 5709 5711 5713 5713 5715 5718 5721 5721 5722 5723 5724 5725 5726 5727 5728 5729 5729 5730 5730 5731 5732 5733 5734 5735 5736 5736 5737 5738 5739 5741 5742 5743 5744 5746 5748 5749 5752 5754 5757 5759 5761 5762 5764 5766 5768 5770 5772
5696 5698 5700 5702 5703 5704 5706 5709 5712 5712 5713 5714 5715 5716 5717 5718 5719 5719 5720 5720 5721 5722 5723 5723 5724 5725 5726 5726 5727 5728 5730 5731 5732 5733 5734 5735 5737 5739 5741 5744 5747 5749 5751 5753 5755 5757 5759 5761 5763
5688 5689 5691 5693 5695 5695 5697 5700 5702 5703 5704 5705 5707 5707 5708 5709 5710 5710 5711 5711 5712 5713 5713 5714 5714 5715 5716 5717 5717 5718 5720 5721 5722 5723 5724 5726 5727 5729 5731 5734 5736 5739 5742 5744 5746 5748 5750 5752 5754
5680 5681 5683 5684 5685 5686 5687 5690 5693 5694 5695 5696 5697 5698 5699 5700 5701 5701 5702 5702 5702 5703 5704 5704 5705 5705 5706 5707 5707 5709 5710 5711 5713 5714 5715 5716 5718 5719 5721 5724 5727 5729 5732 5735 5737 5739 5741 5743 5745
5672 5673 5674 5675 5676 5677 5679 5679 5685 5686 5687 5688 5689 5689 5690 5691 5692 5692 5693 5693 5693 5694 5694 5694 5695 5695 5696 5697 5698 5699 5701 5702 5704 5704 5706 5707 5709 5710 5712 5714 5717 5720 5723 5725 5727 5730 5732 5734 5735
5664 5665 5666 5667 5667 5668 5670 5670 5676 5678 5679 5680 5680 5681 5681 5682 5682 5683 5683 5684 5684 5684 5684 5684 5685 5685 5686 5687 5688 5690 5691 5693 5694 5695 5696 5698 5700 5701 5703 5706 5708 5711 5713 5715 5718 5720 5722 5724 5725
5656 5657 5658 5658 5659 5660 5663 5663 5666 5670 5671 5672 5672 5672 5672 5673 5673 5673 5674 5674 5674 5674 5674 5674 5674 5675 5676 5677 5679 5680 5682 5684 5685 5686 5688 5689 5691 5693 5695 5697 5699 5702 5704 5706 5708 5710 5712 5713 5715
5649 5650 5650 5650 5650 5652 5655 5655 5659 5661 5662 5663 5663 5663 5663 5663 5664 5664 5664 5664 5664 5664 5664 5664 5664 5665 5666 5668 5669 5671 5672 5674 5676 5678 5679 5681 5683 5685 5687 5689 5691 5694 5696 5697 5699 5700 5701 5703 5704
5641 5643 5644 5643 5643 5645 5646 5647 5652 5653 5653 5654 5654 5654 5654 5654 5655 5655 5655 5654 5655 5654 5654 5654 5654 5655 5656 5658 5660 5661 5663 5665 5667 5669 5671 5672 5674 5676 5678 5680 5683 5685 5686 5688 5689 5690 5691 5692 5693
5633 5635 5636 5636 5635 5636 5638 5640 5643 5645 5645 5645 5645 5646 5646 5646 5645 5645 5645 5645 5645 5645 5644 5644 5645 5646 5647 5649 5650 5652 5654 5656 5658 5660 5662 5664 5666 5668 5670 5672 5674 5676 5677 5678 5679 5680 5681 5681 5682
5626 5627 5628 5627 5627 5628 5630 5632 5635 5636 5636 5637 5637 5637 5636 5636 5636 5636 5636 5636 5636 5635 5635 5635 5636 5637 5638 5640 5641 5643 5645 5647 5649 5651 5653 5655 5657 5659 5661 5663 5665 5666 5667 5669 5670 5670 5671 5671 5672
5620 5620 5620 5619 5620 5621 5621 5627 5628 5628 5628 5628 5628 5627 5627 5627 5627 5628 5628 5627 5627 5626 5626 5627 5628 5629 5630 5631 5633 5634 5636 5638 5639 5642 5644 5646 5648 5650 5652 5654 5655 5657 5658 5659 5660 5660 5660 5661 5661
5611 5612 5613 5613 5613 5613 5613 5620 5620 5620 5619 5619 5619 5619 5618 5618 5619 5619 5619 5619 5618 5618 5618 5618 5619 5620 5622 5623 5624 5626 5627 5629 5631 5633 5635 5636 5639 5641 5642 5644 5645 5647 5648 5648 5649 5650 5650 5650 5650